Live from Altenrhein
LIVE
LSZR 161850Z 04009KT 360V080 9999 BKN043 M03/M07 Q1023 NOSIG RMK Q

People´s C-Office:

T: +41 (0)71 858 51 65

E: c-office@peoples.ch

Fees & Charges

Fees and handling charges in Altenrhein.

 

People's Business Airport St. Gallen - Altenrhein offers by every single handling request, competitive fees, personal service with the highest standards of quality.

 

For charges and fees please refer to the following Tariff Reglement:

 

Fuel & Oil

JET A1 / Avgas 100 LL

BP Turbo Oil 2380 / Shell Oil 15W50 / Shell Oil W100 / Shell Oil W80

 

The listed prices do not include 8% VAT.

Duty included prices include 0.02 CHF CO2 emissions tax.

Current fuel prices for the month of January 2017.

JET A1 Avgas
duty included CHF 1.74 / 1l duty included CHF 2.18 / 1l
duty free CHF 0.98 / 1l duty free CHF 1.43 / 1l

 

De-icing

De-Icing fluid / hot water mixture CHF 7.80 per litre sprayed